Lexington Weather

Lexington, Massachusetts, USA

35°F
10/30/2020 6:23am 
  • Lexington Conditions: Light snow, Mist, Overcast
  • Temperature: 34.5°F / 1.4°CColder 1.3°F than last hour.
  • Dew Point: 33.8°FDecreased 1.3°Fsince last hour.
  • Relative Humidity: 97
  • Wind: Wind from N N 2 mph, 10-min avg: 2 mph, gust: 6 mph
  • Barometer: 29.75 inFalling 0.03  inHg/hr Falling Slowly
  • Visibility: 5 miles
  • Rain Today: 0.09 in
  •   
Southeast Middlesex County - Winter Weather Advisory
 - SEE ALL NEARBY ALERTS -

Regional Weather Roundup
for Boston / Norton, MA

        
000
ASUS41 KBOX 251704
RWRBOX

REGIONAL WEATHER ROUNDUP
NATIONAL WEATHER SERVICE BOSTON/NORTON MA
100 PM EDT SUN OCT 25 2020

NOTE:  "FAIR" INDICATES FEW OR NO CLOUDS BELOW 12,000 FEET WITH NO 
SIGNIFICANT WEATHER AND/OR OBSTRUCTIONS TO VISIBILITY.

MAZALL-251800-
EASTERN MASSACHUSETTS
  
CITY           SKY/WX    TMP DP  RH WIND       PRES   REMARKS
BOSTON         PTSUNNY   49  35  58 E10       30.28S                  
BEVERLY        CLOUDY    48  36  63 NE7       30.27S                  
LAWRENCE       MOSUNNY   48  33  56 CALM      30.29F                  
BEDFORD        MOSUNNY   49  33  54 CALM      30.26F                  
BLUE HILL        N/A     49  36  61 E9        30.24F                  
NORWOOD        CLOUDY    51  36  56 NE8       30.27S                  
MARSHFIELD     CLOUDY    52  37  58 NE12      30.26F                  
PLYMOUTH       MOSUNNY   50  37  61 NE10      30.26S                  
TAUNTON        PTSUNNY   53  38  56 N8        30.26S                  
NEW BEDFORD    CLOUDY    55  39  54 NE10      30.24S                  
$$

MAZALL-251800-
CAPE COD AND THE ISLANDS
  
CITY           SKY/WX    TMP DP  RH WIND       PRES   REMARKS
FALMOUTH       MOSUNNY   52  37  58 NE10G17   30.25S                  
HYANNIS        PTSUNNY   52  39  61 N12G20    30.24R                  
CHATHAM        PTSUNNY   52  38  58 NE9       30.26S                  
PROVINCETOWN   MOSUNNY   50  38  63 NE10      30.27S                  
NANTUCKET      PTSUNNY   54  39  57 NE15      30.24S                  
MARTHAS VNYRD  MOSUNNY   55  39  54 NE12G20   30.24R                  
$$
 
MAZALL-251800-
CENTRAL AND WESTERN MASSACHUSETTS
  
CITY           SKY/WX    TMP DP  RH WIND       PRES   REMARKS
WORCESTER      SUNNY     45  31  58 E5        30.25S                  
FITCHBURG      SUNNY     48  32  53 VRB3      30.28S                  
ORANGE         SUNNY     46  29  51 N7        30.27F                  
SPRINGFIELD    PTSUNNY   49  30  48 NE7       30.26S                  
WESTFIELD      MOSUNNY   47  31  53 N7        30.27S                  
NORTH ADAMS    SUNNY     47  30  51 VRB5      30.26F                  
PITTSFIELD     MOSUNNY   44  30  57 VRB6      30.23F                  
$$
 
RIZALL-251800-
RHODE ISLAND
  
CITY           SKY/WX    TMP DP  RH WIND       PRES   REMARKS
PROVIDENCE     PTSUNNY   52  37  56 NE8       30.26S                  
NEWPORT        PTSUNNY   52  39  61 N6        30.24S                  
BLOCK ISLAND   PTSUNNY   52  41  66 E13       30.24F                  
SMITHFIELD     MOSUNNY   52  37  56 E6        30.25F                  
WESTERLY       PTSUNNY   55  37  50 NE8       30.24F                  
$$
 
CTZALL-251800-
CONNECTICUT
  
CITY           SKY/WX    TMP DP  RH WIND       PRES   REMARKS
BRADLEY INTL   PTSUNNY   49  31  49 N8        30.27S                  
HARTFORD       PTSUNNY   51  33  50 VRB7      30.26F                  
BRIDGEPORT     MOSUNNY   51  33  50 N9        30.25F                  
DANBURY        MOSUNNY   50  33  52 N9        30.24F                  
GROTON         PTSUNNY   55  39  54 NE10      30.23F                  
NEW HAVEN      MOSUNNY   52  35  52 N12       30.25F                  
CHESTER        FAIR      52  32  46 VRB5      30.24F                  
MERIDEN        MOSUNNY   51  32  48 VRB5      30.26F                  
WILLIMANTIC    SUNNY     52  34  50 VRB5      30.25F                  
OXFORD         MOSUNNY   47  33  58 VRB7      30.25S                  
$$

MEZ002-015-021-024-NHZ003-005-008-011-012-014-VTZ005-008-251800-
NORTHERN NEW ENGLAND
  
CITY           SKY/WX    TMP DP  RH WIND       PRES   REMARKS
PORTLAND ME    MOSUNNY   47  26  44 W5        30.28S                  
BANGOR ME      PTSUNNY   46  25  43 N13       30.25F                  
CONCORD NH     SUNNY     47  26  44 N6        30.28S                  
MANCHESTER NH  CLOUDY    48  29  47 VRB3      30.26F                  
NASHUA NH      SUNNY     47  32  56 CALM      30.29S                  
PORTSMOUTH NH  CLOUDY    47  28  49 N5        30.27S                  
JAFFREY NH     SUNNY     44  28  53 CALM      30.25F                  
KEENE NH       SUNNY     45  28  51 NW9       30.28S                  
BURLINGTON VT  PTSUNNY   43  24  47 NE9       30.34S                  
MT. WASHINGTON MOSUNNY   21  -4  33 NW16        N/A  WCI   7          
$$

NYZ052-076-251800-
EASTERN NEW YORK
  
CITY           SKY/WX    TMP DP  RH WIND       PRES   REMARKS
ALBANY         PTSUNNY   44  30  57 N10G16    30.29F                  
NEW YORK CITY  PTSUNNY   51  34  52 NE7       30.25S                  
$$
 
ANZALL-251800-
MARINE OBSERVATIONS
  
STATION/POSITION TIME  TEMP    WIND        PRES    VSBY  WAVE
                       AIR SEA DIR/SP/G                  HT/PER
                 (UTC) (F)     (DEG/KT/KT) (MB)    (MI)  (FT/S)
BOSTON BUOY      1650   48 57   50/ 12/ 14 1024.2S         6/11
BUZZARDS BAY     1600           50/ 15/ 18 1025.2R
NANTUCKET SOUND  1650      61   40/ 12/ 16   N/A           2/ 4
MASS BAY-STELLWA 1604   48 57   40/ 12/ 16 1024.7R  1 7/8  6/11
ISLE OF SHOALS   1600   44      30/  6/  7 1025.2R
S OF BLOCK IS    1626      62                N/A           5/12
$$

......................KEY.........................
  SKY/WX - SKY CONDITION/PRESENT WEATHER
  TMP    - TEMPERATURE IN FAHRENHEIT
  DWPT   - DEWPOINT IN FAHRENHEIT
  RH     - RELATIVE HUMIDITY IN PERCENT
  WIND   - DIRECTION AND SPEED IN MPH
  PRES   - MEAN SEA LEVEL PRESSURE IN INCHES OF HG
  WCI    - WIND CHILL INDEX
  VSB    - VISIBILITY IN MILES
  HX     - HEAT INDEX
  TC     - TEMPERATURE IN CELSIUS
  VRB    - VARIABLE WIND DIRECTION
  N/A    - NOT AVAILABLE
  
      

Other recent Regional Weather Roundups

Fri Oct 30, 6:04am

Fri Oct 30, 5:04am

Fri Oct 30, 4:04am

Fri Oct 30, 3:04am

Fri Oct 30, 2:04am

Fri Oct 30, 1:04am

Fri Oct 30, 12:04am

Thu Oct 29, 11:04pm

Thu Oct 29, 10:04pm

Thu Oct 29, 9:04pm

Thu Oct 29, 8:04pm

Thu Oct 29, 7:04pm

Thu Oct 29, 6:04pm

Thu Oct 29, 5:05pm

Thu Oct 29, 4:05pm

Thu Oct 29, 3:05pm

Thu Oct 29, 2:04pm

Thu Oct 29, 1:04pm

Thu Oct 29, 12:04pm

Thu Oct 29, 11:04am

Thu Oct 29, 10:04am

Thu Oct 29, 9:04am

Thu Oct 29, 8:04am

Thu Oct 29, 7:04am

Thu Oct 29, 6:04am

Thu Oct 29, 5:04am

Thu Oct 29, 4:04am

Thu Oct 29, 3:04am

Thu Oct 29, 2:04am

Thu Oct 29, 1:05am

Thu Oct 29, 12:04am

Wed Oct 28, 11:05pm

Wed Oct 28, 10:04pm

Wed Oct 28, 9:04pm

Wed Oct 28, 8:04pm

Wed Oct 28, 7:05pm

Wed Oct 28, 6:04pm

Wed Oct 28, 5:05pm

Wed Oct 28, 4:04pm

Wed Oct 28, 3:04pm

Wed Oct 28, 2:04pm

Wed Oct 28, 1:05pm

Wed Oct 28, 12:05pm

Wed Oct 28, 11:05am

Wed Oct 28, 10:04am

Wed Oct 28, 9:04am

Wed Oct 28, 8:04am

Wed Oct 28, 7:04am

Wed Oct 28, 6:04am

Wed Oct 28, 5:05am

Wed Oct 28, 4:04am

Wed Oct 28, 3:04am

Wed Oct 28, 2:04am

Wed Oct 28, 1:05am

Wed Oct 28, 12:04am

Tue Oct 27, 11:04pm

Tue Oct 27, 10:04pm

Tue Oct 27, 9:05pm

Tue Oct 27, 8:04pm

Tue Oct 27, 7:04pm

Tue Oct 27, 6:04pm

Tue Oct 27, 5:04pm

Tue Oct 27, 4:05pm

Tue Oct 27, 3:04pm

Tue Oct 27, 2:04pm

Tue Oct 27, 1:04pm

Tue Oct 27, 12:04pm

Tue Oct 27, 11:04am

Tue Oct 27, 10:04am

Tue Oct 27, 9:04am

Tue Oct 27, 8:04am

Tue Oct 27, 7:04am

Tue Oct 27, 6:04am

Tue Oct 27, 5:04am

Tue Oct 27, 4:04am

Tue Oct 27, 3:04am

Tue Oct 27, 2:05am

Tue Oct 27, 1:04am

Tue Oct 27, 12:04am

Mon Oct 26, 11:05pm

Mon Oct 26, 10:04pm

Mon Oct 26, 9:04pm

Mon Oct 26, 8:04pm

Mon Oct 26, 7:04pm

Mon Oct 26, 6:04pm

Mon Oct 26, 5:04pm

Mon Oct 26, 4:05pm

Mon Oct 26, 2:04pm

Mon Oct 26, 1:04pm

Mon Oct 26, 12:04pm

Mon Oct 26, 11:05am

Mon Oct 26, 10:04am

Mon Oct 26, 9:04am

Mon Oct 26, 8:04am

Mon Oct 26, 7:04am

Mon Oct 26, 6:04am

Mon Oct 26, 5:04am

Mon Oct 26, 4:04am

Mon Oct 26, 3:04am

Mon Oct 26, 2:04am

Mon Oct 26, 1:04am

Mon Oct 26, 12:04am

Sun Oct 25, 11:05pm

Sun Oct 25, 10:04pm

Sun Oct 25, 9:04pm

Sun Oct 25, 8:04pm

Sun Oct 25, 7:04pm

Sun Oct 25, 6:04pm

Sun Oct 25, 5:04pm

Sun Oct 25, 4:05pm

Sun Oct 25, 3:04pm

Sun Oct 25, 2:04pm

Sun Oct 25, 12:04pm

Sun Oct 25, 11:04am

Sun Oct 25, 10:04am

Sun Oct 25, 9:04am

Sun Oct 25, 8:04am

Sun Oct 25, 7:04am

Sun Oct 25, 6:04am

Sun Oct 25, 5:04am

Sun Oct 25, 4:04am

Sun Oct 25, 3:04am

Sun Oct 25, 2:04am

Sun Oct 25, 1:05am

Sun Oct 25, 12:04am

Sat Oct 24, 11:04pm

Sat Oct 24, 10:04pm

Sat Oct 24, 9:04pm

Sat Oct 24, 8:04pm

Sat Oct 24, 7:04pm

Sat Oct 24, 6:04pm

Sat Oct 24, 5:05pm

Sat Oct 24, 4:04pm

Sat Oct 24, 3:04pm

Sat Oct 24, 2:04pm

Sat Oct 24, 1:05pm

Sat Oct 24, 12:04pm

Sat Oct 24, 11:05am

Sat Oct 24, 10:05am

Sat Oct 24, 9:04am

Sat Oct 24, 8:04am

Sat Oct 24, 7:04am

Sat Oct 24, 6:04am

Sat Oct 24, 5:04am

Sat Oct 24, 4:04am

Sat Oct 24, 3:04am

Sat Oct 24, 2:04am

Sat Oct 24, 1:05am

Sat Oct 24, 12:04am

Fri Oct 23, 11:04pm

Fri Oct 23, 10:04pm

Fri Oct 23, 9:04pm

Fri Oct 23, 8:05pm

Fri Oct 23, 7:04pm

Fri Oct 23, 6:04pm

Fri Oct 23, 5:05pm

Fri Oct 23, 4:04pm

Fri Oct 23, 3:04pm

Fri Oct 23, 2:05pm

Fri Oct 23, 1:04pm

Fri Oct 23, 12:04pm

Fri Oct 23, 11:04am

Fri Oct 23, 10:04am

Fri Oct 23, 9:04am

Fri Oct 23, 8:04am

Fri Oct 23, 7:04am

Meta data:

ID: eb63cebf-7ba0-44c4-b7a8-74d7c16921f8
Link: https://api.weather.gov/products/eb63cebf-7ba0-44c4-b7a8-74d7c16921f8